sat.trackr.live / text

‹ back to catalog

STARLINK-34236

NORAD 64743 · 2025-144V

PAYLOAD ACTIVE UNKNOWN

§ Identity

Operator
Country
US
Launch date
2025-07-02
Launch site
AFETR
Launch vehicle
Mass (kg)
RCS (m²)

Purposes: comms

External: N2YO · Heavens-Above · Gunter

§ Orbital elements

Epoch: 2026-05-25T02:53:25.615104Z

Period
94.11 min
Inclination
53.1587°
Eccentricity
0.0001213
Mean motion
15.30205100 rev/d
Perigee alt
474.4 km
Apogee alt
476.0 km
Semi-major
6,853.3 km
B*
5.3173e-4
RAAN
186.0324°
Arg perigee
88.9172°
Mean anomaly
271.1968°
Rev number
5,141

§ Raw data

STARLINK-342361 64743U 25144V   26145.12043536  .00015424  00000+0  53173-3 0  99992 64743  53.1587 186.0324 0001213  88.9172 271.1968 15.30205100 51413

JSON: /api/v1/satellites/64743 · /tle

For live sub-satellite position, see the globe view (requires WebGL).

§ Visibility from observer

Set your observer location to see the next 7 days of passes ≥ 10°. The values pass through the URL so the page stays shareable.

No JS? Fill the form by hand. The geolocation button needs JavaScript.